Location: Bakhuizen
(52.8696°N, 5.4575°E)
Time: 16:42:43
(UTC+00:00)

Cosmos 773 Rocket - Visible Passes

Search period start: 25 September 2021 00:00
Search period end: 05 October 2021 00:00
Orbit: 745 x 777 km, 74.1° (Epoch: 24 September)

Date Brightness Start Highest point End Pass type
(mag) Time Alt. Az. Time Alt. Az. Time Alt. Az.
25 Sep 4.6 18:42:59 10° NNW 18:48:10 60° WSW 18:53:21 10° S visible
25 Sep 7.0 20:28:22 10° W 20:28:59 10° W 20:29:36 10° W visible
26 Sep 4.1 18:03:47 10° NNW 18:09:05 87° ENE 18:14:23 10° SSE visible
26 Sep 6.7 19:46:55 10° NW 19:50:17 17° W 19:53:40 10° SW visible
27 Sep 6.1 19:07:03 10° NW 19:11:28 28° W 19:15:54 10° SSW visible
28 Sep 5.3 18:27:35 10° NW 18:32:33 44° WSW 18:37:33 10° S visible
29 Sep 4.4 17:48:17 10° NNW 17:53:32 71° WSW 17:58:48 10° SSE visible
29 Sep 7.0 19:32:20 10° WNW 19:34:29 13° W 19:36:38 10° WSW visible
30 Sep 6.7 18:51:56 10° NW 18:55:45 21° W 18:59:34 10° SW visible
01 Oct 6.0 18:12:14 10° NW 18:16:54 33° WSW 18:21:34 10° SSW visible
03 Oct 7.1 18:37:03 10° WNW 18:39:59 15° W 18:42:53 10° SW visible
04 Oct 6.7 17:57:01 10° NW 18:01:12 24° W 18:05:23 10° SSW visible
